User: anonymous   Login
Location: Unspecified
(0.0000°N, 0.0000°E)
Time: 22:16:43
(UTC+00:00)
Language:

Aussat K3 - Orbit

View from above orbital plane
View from above orbital plane
View from above satellite
View from above satellite

Ground track
Ground track

The orbit data is extracted from the following two-line orbital elements,

1 18350U 87078A   16345.42193189 -.00000004  00000-0  00000+0 0  9997
2 18350  14.5412  20.0963 0009275 265.8661 204.9254  0.98904152106149
Epoch (UTC): 10 December 2016 10:07:34
Eccentricity: 0.0009275
inclination: 14.5412°
perigee height: 36134 km
apogee height: 36213 km
right ascension of ascending node: 20.0963°
argument of perigee: 265.8661°
revolutions per day: 0.98904152
mean anomaly at epoch: 204.9254°
orbit number at epoch: 10614

The dashed part of the orbit path shows where the satellite is in the earth's shadow,  

DLR